sat.trackr.live / text

‹ back to catalog

VINDLER 2.3

NORAD 68486 · 2026-067BY

PAYLOAD ACTIVE UNKNOWN

§ Identity

Operator
Country
US
Launch date
2026-03-30
Launch site
AFWTR
Launch vehicle
Mass (kg)
RCS (m²)

External: N2YO · Heavens-Above · Gunter

§ Orbital elements

Epoch: 2026-05-24T20:05:01.613472Z

Period
96.52 min
Inclination
97.7568°
Eccentricity
0.0002475
Mean motion
14.91882062 rev/d
Perigee alt
590.3 km
Apogee alt
593.8 km
Semi-major
6,970.2 km
B*
1.6738e-4
RAAN
103.4485°
Arg perigee
69.9922°
Mean anomaly
290.1564°
Rev number
824

§ Raw data

VINDLER 2.31 68486U 26067BY  26144.83682423  .00001636  00000+0  16738-3 0  99992 68486  97.7568 103.4485 0002475  69.9922 290.1564 14.91882062  8248

JSON: /api/v1/satellites/68486 · /tle

For live sub-satellite position, see the globe view (requires WebGL).

§ Visibility from observer

Set your observer location to see the next 7 days of passes ≥ 10°. The values pass through the URL so the page stays shareable.

No JS? Fill the form by hand. The geolocation button needs JavaScript.